Etusivu
METAR-TAF:

METAR-TAF

Lentoasemat :

Municipal_Airport

Socorro, New Mexico, Yhdysvallat

Leveyspiiri: 34-01N, Pituuspiiri: 106-54W, korkeus merenpinnasta: 1478 m

Tämänhetkinen sää

Tämä raportti tehtiin 16 minuuttia sitten, kello 16.35 UTC
Tuuli 14 kn pohjoisesta puuskistuen 19 kn:hen
Lämpötila 9°C
Kosteus 53%
Ilmanpaine 1018 hPa
Näkyvyys: 16.1 km
selkeää

METAR: KONM 181635Z AUTO 01014G19KT 10SM CLR 09/00 A3006 RMK AO2 T00861002

Aika: 09:51 (16:51 UTC)


TAF: puuttuu

Säähavainnot ja -ennusteet yli 4000 lentoasemalta (METAR- ja TAF-raportit).

Käytössä olevat sääasemat on merkitty karttaan keltaisilla ja punaisilla pisteillä.

Aseta hiiri pisteen päälle nähdäksesi sääaseman nimen.

Klikkaa sitten nähdäksesi säähavainnot ja -ennusteet.

Kartan vaihtaminen: klikkaa mustalla rastilla varustettuja vihreitä pisteitä, niin voit zoomata sisään; viivalla varustettua vihreää pistettä, niin voit zoomata ulos tai vihreitä nuolia, niin pääset viereisille kartoille.


METAR-TAF: